Tracking 30685 objects as of 18-Jun-2025
HD Live streaming from Space Station
objects crossing your sky now

MARAFON-D-GVM

Track MARAFON-D-GVM now!
10-day predictions
MARAFON-D-GVM is classified as:


NORAD ID: 59072
Int'l Code: 2024-039V
Perigee: 733.3 km
Apogee: 760.0 km
Inclination: 89.0 °
Period: 99.6 minutes
Semi major axis: 7117 km
RCS: Unknown
Launch date: February 29, 2024
Source: (TBD)
Launch site: VOSTOCHNY COSMODROME (VOSTO)

Uplink (MHz):
Downlink (MHz):
Beacon (MHz):
Mode:
Call sign:
Status: Unknown

Your satellite tracking list
Your tracking list is empty




NASA's NSSDC Master Catalog

Two Line Element Set (TLE):
1 59072U 24039V   25169.20592528  .00000285  00000-0  75849-4 0  9999
2 59072  88.9914 327.5302 0018708 124.0524 236.2460 14.45765149 68595
Source of the keplerian elements: AFSPC